Wind_Speed
21 22 21 18 17 16 15 14 14 14 13 12 11 11 12 13 12 9 11 13 12 10 12 12 10 10 10 9 10 11 11 11 9 9 10 9 9 7 6 9 11 11
21 21 21 19 17 16 15 14 13 13 14 14 13 11 11 12 12 11 12 13 13 13 12 11 10 9 9 9 9 9 9 10 9 8 8 10 10 9 7 10 12 12
20 20 21 19 18 16 15 15 15 14 14 14 15 14 13 12 12 13 13 14 14 13 11 10 9 9 9 8 9 8 6 8 8 6 8 11 10 9 9 10 10 11
22 21 20 19 17 16 16 16 16 16 14 13 15 15 13 12 12 12 13 15 14 12 11 9 7 8 8 8 8 7 6 8 9 8 10 11 8 8 10 11 11 11
22 21 20 18 17 16 17 16 16 16 15 15 15 13 12 14 12 11 12 13 12 13 12 9 8 8 8 8 8 8 8 10 10 9 9 9 8 8 8 8 10 10
22 22 20 19 18 18 17 17 17 16 15 16 16 15 15 15 13 12 14 13 12 12 12 11 10 10 9 9 9 9 9 10 10 10 9 9 9 8 6 7 9 10
21 22 21 20 19 19 18 18 17 17 17 17 15 15 16 15 14 14 14 14 13 12 12 12 11 10 10 8 8 9 9 9 9 10 11 10 10 9 8 8 9 10
21 21 21 21 20 20 19 18 18 17 18 17 15 14 15 15 14 14 14 13 12 11 12 13 12 12 10 9 9 9 10 9 8 9 10 10 10 9 9 10 10 10
21 21 21 21 20 20 19 19 18 17 18 18 16 15 15 15 14 15 15 14 13 11 11 11 12 13 12 11 11 10 9 10 9 9 9 8 9 10 11 11 9 9
21 21 21 21 21 20 20 19 19 18 18 17 16 15 15 15 15 14 13 13 13 12 12 12 11 11 11 11 11 10 10 10 10 10 10 9 9 11 12 11 9 9
22 21 21 22 21 21 21 20 19 19 18 17 17 16 15 15 15 14 12 12 13 13 13 13 11 10 10 9 9 9 10 10 10 10 10 9 9 10 10 9 9 10
22 22 21 22 22 21 20 20 19 19 18 18 17 17 16 15 14 14 12 13 13 12 13 13 12 11 10 9 9 9 8 8 8 8 8 8 8 8 9 9 9 10
25 24 22 21 22 22 20 20 20 19 18 18 17 17 16 15 14 14 13 13 12 12 12 13 13 12 10 10 10 9 8 7 7 7 8 8 8 9 10 10 8 9
26 26 24 22 21 21 22 21 20 20 20 19 18 17 16 16 15 14 13 13 12 12 13 14 12 10 10 11 11 10 9 8 8 9 9 8 8 9 10 9 7 8
26 26 26 25 22 21 22 23 20 20 21 20 19 18 17 17 15 14 13 12 13 14 15 15 13 12 12 11 10 10 11 10 9 10 10 10 10 9 9 8 6 7
27 27 27 28 26 22 22 24 24 22 20 19 19 19 17 16 15 15 13 12 14 17 17 15 15 14 13 11 10 10 10 11 11 10 9 10 10 9 8 7 6 6
29 28 27 28 29 26 22 24 27 25 20 17 19 21 19 18 17 16 14 14 15 15 16 17 16 16 14 13 12 10 9 11 12 10 8 8 8 7 7 7 7 8
29 29 28 27 29 29 26 25 26 25 23 20 21 24 24 23 22 19 16 16 15 14 16 16 15 15 14 12 11 10 9 9 10 9 7 7 6 7 8 8 8 8
28 29 29 29 30 31 30 28 26 25 23 22 22 24 25 24 24 22 19 17 15 16 17 16 15 15 14 12 10 9 8 9 9 8 8 8 8 8 8 8 9 9
28 28 28 28 29 30 29 27 26 25 24 24 24 23 23 22 21 21 21 19 16 16 17 16 15 14 13 11 10 9 9 10 10 9 9 10 9 8 8 9 8 7
29 29 27 27 30 30 27 24 23 23 25 28 27 24 22 20 17 17 21 21 19 17 17 15 14 13 11 10 9 9 9 9 10 10 9 9 8 8 8 7 6 4
27 29 28 28 30 29 26 25 24 24 26 29 28 24 22 21 19 20 22 23 22 21 19 16 14 11 9 8 8 8 8 9 9 9 8 8 8 7 6 5 5 5
25 27 28 29 28 23 21 24 26 26 28 30 28 27 25 24 25 25 25 23 22 21 18 15 12 9 8 8 8 7 7 7 7 7 6 6 7 7 8 8 9 9
24 26 26 26 25 20 19 23 25 24 26 25 26 28 29 27 27 27 25 23 20 18 16 13 10 9 8 7 6 6 7 6 4 4 5 7 9 11 12 13 14 14
21 23 22 20 18 16 17 21 25 27 26 22 22 27 29 28 27 25 23 21 18 16 14 12 10 10 10 8 6 6 6 5 3 4 7 12 15 17 18 18 18 18
14 17 17 15 14 14 14 15 19 25 27 22 20 24 28 28 26 24 21 17 15 13 12 12 11 11 11 9 7 6 6 6 6 8 13 17 20 20 21 22 21 21
Wind_Direction
186 184 185 185 188 193 195 199 198 193 197 203 209 207 201 213 223 210 206 226 242 237 227 228 234 236 235 240 241 233 233 238 240 247 263 277 276 275 280 275 273 269
192 191 190 190 194 196 195 199 201 199 203 203 202 209 214 216 213 205 211 225 237 246 239 228 231 234 233 240 246 246 244 248 252 252 266 279 275 273 274 271 274 280
194 194 194 195 197 198 197 200 203 202 208 209 201 199 204 214 217 206 209 225 232 241 241 227 226 231 229 234 243 247 251 261 264 257 259 268 272 281 285 283 289 296
196 198 200 201 201 201 201 202 204 204 204 209 209 205 199 207 223 215 211 226 229 229 235 230 223 226 224 227 238 246 248 253 253 245 249 258 261 271 282 292 304 309
201 203 203 204 202 204 206 204 206 207 204 206 209 213 214 210 212 212 217 228 224 221 232 233 224 226 227 227 236 242 239 243 253 257 259 262 260 262 276 294 303 311
205 204 201 202 202 204 208 207 208 208 206 211 208 205 213 217 214 211 215 220 218 219 230 233 231 231 229 227 231 238 241 247 259 268 272 278 281 286 298 303 304 310
205 204 201 202 203 205 208 208 210 211 210 218 220 206 205 215 218 212 213 220 218 212 220 231 235 234 231 231 232 239 248 253 255 264 275 284 288 297 308 306 305 310
204 206 205 204 206 207 209 210 211 213 214 217 221 213 210 218 217 210 214 226 226 219 221 227 232 235 233 228 231 239 248 255 263 269 275 282 288 293 297 297 301 307
204 207 207 206 209 210 211 213 211 213 216 215 213 212 216 223 219 213 214 217 221 230 238 235 236 240 236 230 237 245 247 257 272 276 276 284 291 293 296 300 307 314
207 208 209 209 211 213 214 215 214 215 215 215 215 215 215 219 222 224 222 212 211 222 234 237 235 234 234 238 249 253 249 256 267 270 274 280 289 300 303 304 314 323
209 209 211 211 213 214 216 216 216 216 216 216 217 217 216 216 221 227 226 218 216 219 227 234 233 228 230 234 242 248 249 252 256 260 267 277 293 306 302 300 314 321
210 211 213 215 215 216 217 218 218 217 217 217 216 216 218 218 219 222 222 221 222 222 226 232 234 235 234 229 235 251 256 252 255 262 271 282 292 294 291 299 310 304
210 211 214 217 219 220 219 220 221 220 219 218 216 215 216 218 220 221 221 221 223 224 227 231 234 237 235 229 233 247 259 260 265 272 273 273 274 277 285 293 295 286
213 212 212 214 219 222 221 221 222 222 222 221 218 217 217 218 219 222 222 222 224 227 231 236 237 236 233 229 229 240 257 267 271 270 267 261 264 279 287 283 278 276
214 215 214 213 215 220 222 222 222 222 224 224 221 220 221 219 218 221 222 222 223 223 228 235 237 238 240 238 237 246 256 262 264 264 267 265 266 271 270 267 266 270
211 214 214 213 213 217 221 222 221 220 222 223 220 219 219 216 215 218 220 223 225 224 228 235 237 239 244 246 250 255 254 258 262 263 268 274 274 269 263 257 252 258
214 215 217 215 213 215 218 221 222 221 219 216 215 215 214 210 208 207 210 220 225 226 229 234 236 238 240 242 251 255 249 256 268 272 272 275 271 265 267 265 260 261
222 221 223 221 217 215 217 219 220 223 224 221 218 217 214 213 210 203 202 214 223 222 222 227 232 233 233 237 246 249 245 253 264 267 263 259 253 254 262 262 256 256
228 226 227 226 220 217 218 219 219 222 227 228 226 224 223 223 221 214 207 212 221 224 222 221 223 224 228 238 243 242 243 247 251 254 250 251 257 258 252 246 245 252
229 228 228 228 225 221 219 220 220 221 228 232 229 226 224 222 218 214 213 214 219 224 222 216 215 221 232 243 239 234 240 247 251 253 250 250 253 246 237 239 247 258
229 227 226 226 226 221 215 213 214 214 223 232 230 224 221 217 210 210 214 213 213 219 221 217 220 231 241 238 229 230 241 249 253 255 252 247 238 229 233 241 239 226
231 228 224 223 223 219 210 210 212 211 216 224 225 222 220 218 216 218 216 213 213 219 224 226 230 238 238 222 219 234 245 249 253 252 244 229 213 208 209 198 174 158
231 228 224 223 223 218 210 210 213 214 217 218 216 218 219 217 217 218 215 214 218 221 222 225 226 226 221 212 215 233 245 251 258 254 235 209 192 185 173 152 141 143
228 228 226 227 228 224 218 217 214 214 220 218 211 212 213 210 210 213 212 213 215 215 215 216 211 203 202 203 207 224 234 239 251 247 214 176 156 146 137 126 121 124
222 224 224 229 230 223 220 218 211 210 217 217 206 203 206 207 208 210 210 206 204 203 202 198 190 183 183 189 194 200 207 206 198 186 169 155 145 136 127 119 116 116
212 217 221 228 228 221 219 214 204 204 210 212 204 200 206 212 212 208 205 199 192 188 183 177 177 177 173 174 176 169 167 169 164 157 152 147 141 135 129 121 116 114
Height
1538 1540 1542 1543 1545 1546 1547 1549 1550 1551 1553 1554 1555 1556 1557 1557 1558 1559 1560 1560 1561 1562 1562 1563 1563 1564 1565 1566 1566 1567 1568 1569 1569 1570 1570 1570 1570 1571 1571 1571 1571 1570
1538 1539 1540 1542 1543 1545 1546 1548 1549 1550 1552 1553 1554 1555 1556 1557 1557 1558 1559 1559 1560 1561 1561 1562 1563 1563 1564 1564 1565 1566 1567 1568 1568 1569 1570 1570 1570 1570 1571 1571 1571 1571
1537 1538 1539 1541 1542 1544 1545 1547 1548 1549 1551 1552 1552 1554 1555 1556 1556 1557 1558 1558 1559 1560 1560 1561 1562 1562 1563 1564 1564 1565 1566 1567 1568 1569 1569 1569 1569 1570 1570 1570 1571 1571
1536 1537 1539 1540 1542 1543 1545 1546 1547 1548 1550 1551 1551 1552 1554 1554 1555 1556 1556 1557 1558 1559 1559 1560 1560 1561 1562 1563 1564 1565 1565 1565 1566 1567 1567 1567 1568 1569 1569 1570 1570 1570
1535 1536 1538 1539 1541 1543 1544 1545 1546 1547 1549 1550 1551 1552 1552 1553 1554 1555 1556 1556 1557 1557 1558 1559 1559 1560 1561 1562 1563 1564 1564 1564 1564 1565 1565 1566 1566 1567 1568 1569 1569 1570
1534 1535 1537 1538 1540 1542 1544 1545 1546 1547 1548 1549 1550 1551 1552 1552 1553 1554 1555 1555 1556 1557 1557 1558 1559 1559 1560 1561 1562 1562 1563 1563 1564 1564 1565 1566 1567 1567 1567 1567 1568 1569
1533 1534 1536 1538 1539 1541 1542 1544 1545 1546 1548 1548 1549 1550 1551 1552 1553 1554 1554 1555 1556 1556 1556 1557 1558 1559 1559 1560 1561 1561 1562 1562 1563 1563 1564 1565 1566 1566 1567 1566 1567 1567
1532 1533 1535 1537 1538 1540 1541 1543 1544 1545 1546 1547 1548 1549 1550 1551 1552 1553 1554 1555 1555 1555 1556 1556 1557 1558 1559 1559 1560 1560 1561 1561 1562 1562 1563 1564 1564 1565 1565 1566 1566 1566
1532 1532 1534 1535 1537 1538 1540 1541 1542 1543 1545 1546 1547 1549 1550 1551 1551 1552 1554 1554 1554 1555 1555 1555 1556 1557 1558 1558 1559 1560 1560 1560 1561 1561 1562 1563 1564 1564 1564 1565 1566 1566
1530 1531 1533 1534 1535 1537 1538 1539 1541 1542 1543 1544 1546 1548 1549 1550 1551 1552 1553 1553 1554 1555 1555 1554 1555 1556 1557 1557 1558 1559 1559 1560 1560 1560 1561 1562 1563 1564 1564 1564 1566 1567
1529 1530 1531 1532 1533 1535 1536 1538 1539 1540 1542 1543 1545 1546 1548 1549 1550 1551 1552 1552 1553 1554 1554 1553 1553 1554 1556 1557 1557 1558 1558 1559 1559 1560 1561 1561 1562 1563 1562 1563 1565 1565
1527 1528 1529 1530 1532 1533 1535 1537 1538 1540 1541 1542 1543 1545 1547 1548 1549 1550 1551 1552 1552 1553 1553 1553 1552 1553 1554 1556 1557 1557 1557 1558 1558 1559 1560 1561 1561 1561 1561 1562 1562 1561
1524 1526 1527 1529 1530 1532 1534 1536 1537 1539 1540 1541 1542 1544 1545 1547 1548 1549 1550 1551 1552 1552 1552 1551 1552 1553 1554 1554 1555 1556 1557 1557 1558 1558 1559 1560 1560 1560 1560 1560 1559 1558
1522 1523 1525 1527 1529 1530 1532 1534 1536 1538 1539 1540 1541 1543 1544 1545 1546 1548 1549 1550 1551 1551 1550 1550 1551 1552 1553 1553 1554 1555 1556 1556 1557 1557 1558 1559 1559 1558 1558 1558 1558 1558
1520 1521 1523 1525 1527 1529 1531 1533 1534 1536 1538 1539 1540 1541 1542 1544 1545 1546 1547 1549 1549 1548 1548 1549 1550 1551 1551 1552 1553 1554 1554 1555 1555 1556 1557 1557 1557 1557 1557 1557 1556 1556
1517 1519 1520 1522 1524 1526 1528 1530 1532 1534 1536 1537 1539 1540 1541 1542 1543 1544 1546 1547 1546 1545 1547 1548 1549 1549 1550 1551 1552 1552 1553 1553 1553 1554 1555 1555 1555 1555 1555 1555 1555 1555
1515 1516 1518 1520 1522 1524 1526 1528 1530 1533 1535 1536 1537 1538 1539 1540 1541 1542 1543 1544 1543 1543 1545 1546 1547 1548 1548 1549 1550 1551 1552 1551 1551 1552 1553 1553 1554 1553 1554 1554 1554 1554
1514 1515 1516 1517 1519 1521 1523 1525 1528 1531 1534 1535 1536 1536 1537 1538 1539 1541 1541 1541 1540 1542 1543 1544 1545 1547 1547 1548 1548 1549 1550 1549 1549 1550 1550 1551 1552 1552 1552 1553 1552 1552
1511 1512 1514 1515 1517 1519 1521 1522 1526 1529 1532 1534 1536 1536 1537 1538 1539 1540 1540 1539 1539 1540 1541 1542 1543 1545 1545 1546 1547 1547 1547 1547 1548 1548 1549 1549 1550 1550 1551 1551 1551 1551
1508 1509 1510 1512 1514 1516 1518 1520 1523 1526 1529 1533 1534 1534 1535 1536 1537 1538 1539 1538 1537 1538 1540 1541 1542 1544 1544 1545 1545 1545 1545 1546 1546 1547 1547 1548 1548 1548 1549 1549 1549 1550
1504 1505 1507 1509 1510 1511 1515 1518 1519 1521 1525 1528 1530 1532 1534 1534 1535 1536 1537 1537 1536 1537 1538 1540 1541 1542 1543 1543 1543 1544 1544 1544 1545 1545 1546 1546 1546 1547 1547 1548 1548 1549
1501 1502 1504 1505 1505 1506 1511 1515 1516 1518 1520 1523 1527 1530 1531 1531 1532 1533 1534 1535 1535 1536 1537 1538 1540 1541 1541 1542 1542 1542 1543 1543 1543 1544 1544 1545 1545 1546 1546 1547 1547 1548
1499 1500 1501 1501 1501 1503 1508 1512 1514 1516 1517 1518 1523 1527 1526 1527 1528 1529 1531 1532 1533 1534 1535 1537 1538 1539 1540 1540 1541 1541 1542 1541 1541 1542 1543 1544 1545 1545 1546 1546 1548 1548
1497 1498 1498 1499 1499 1502 1506 1509 1512 1514 1514 1515 1520 1522 1522 1522 1524 1525 1528 1529 1530 1532 1533 1534 1536 1537 1538 1539 1540 1540 1541 1541 1540 1540 1541 1543 1544 1545 1546 1547 1548 1549
1495 1496 1496 1497 1498 1500 1503 1506 1508 1511 1511 1512 1516 1519 1518 1519 1521 1523 1525 1527 1528 1529 1530 1531 1533 1535 1537 1538 1538 1539 1540 1540 1539 1539 1540 1542 1544 1546 1547 1548 1549 1550
1494 1495 1496 1496 1497 1499 1501 1503 1505 1507 1508 1509 1512 1515 1516 1516 1518 1521 1524 1526 1527 1528 1529 1530 1531 1533 1535 1536 1536 1538 1539 1539 1539 1539 1540 1542 1544 1546 1547 1548 1550 1551